Погода в Нумеа

Новая Каледония     22°15′12″S   166°27′57″E
темп.,
°C
ветер,
м/с
пор.,
м/с
влажн.,
%
обл.,
%
осадки,
мм/ч
давл.,
гПа
погр.,
м
14 апреля, ср
ср1423:00+23юв4591100 3.4 1013472
02:00+23юв349269 1.4 1012341
05:00+23юв4591100 2.6 1012429
08:00+23юв688998 1.1 1013810
11:00+24юв568689 1.6 1013711
14:00+24юв678883 0.7 1011705
17:00+23юв788893 1.4 1012717
20:00+23юв698999 0.7 1014781
15 апреля, чт
чт1523:00+23вюв698890 1.2 1013735
02:00+23вюв589084 0.4 1012658
05:00+23вюв6889100 0.9 1012729
08:00+23вюв4689100 0.3 1014503
11:00+23вюв5690100 0.9 1013507
14:00+23вюв5690100 0.9 1011516
17:00+23вюв4691100 2.1 1011467
20:00+23вюв3493100 1.4 1013315
16 апреля, пт
пт1623:00+22вюв3394100 3.2 1013198
02:00+22вюв2394100 1.8 1012145
05:00+23в129286 4.1 101289
08:00+24юв118716 3.5 101492
11:00+26ю448033 9.1 1013637
14:00+24юв658990 2.1 1012575
17:00+23юв5691100 2.7 1012587
20:00+23юв689085 1.0 1015580
17 апреля, сб
сб1723:00+23вюв578868 1.6 1015611
02:00+22вюв358951 0.2 1014333
05:00+22в358832 0.3 1014285
08:00+23вюв358469 0.3 1016391
11:00+25вюв457817 0.9 1015732
14:00+25юв677781 0.3 1012869
17:00+24вюв578122 0.6 1013672
20:00+23в458597 0.1 1014353
18 апреля, вс
вс1823:00+23в458637 0.4 1014285
02:00+23в348781 0.1 1013202
05:00+23в458742 0.3 1012231
08:00+24в348263 0.1 1014308
11:00+27в447026 0.2 1013822
14:00+27в456928 0.4 1010689
17:00+25в567932 1.3 1011421
20:00+24всв458683 0.6 1012323